QPF
0.02 0.03 0.04 0.04 0.03 0.03 0.06 0.09 0.11 0.10 0.09 0.10 0.09 0.07 0.07 0.06 0.05 0.05 0.03 0.02 0.01 0.00 0.01 0.00 0.00 0.00 0.00 0.00 0.00 0.00 0.00 0.00 0.00 0.00 0.00 0.00 0.00 0.00 0.00 0.00 0.00 0.00 0.00 0.00
0.05 0.05 0.03 0.02 0.02 0.02 0.04 0.08 0.11 0.11 0.11 0.11 0.11 0.08 0.07 0.06 0.05 0.04 0.03 0.02 0.01 0.00 0.01 0.00 0.00 0.00 0.00 0.00 0.00 0.00 0.00 0.00 0.00 0.00 0.00 0.00 0.00 0.00 0.00 0.00 0.00 0.00 0.00 0.00
0.06 0.04 0.02 0.02 0.03 0.04 0.07 0.08 0.08 0.10 0.10 0.10 0.10 0.10 0.09 0.07 0.05 0.03 0.02 0.01 0.00 0.00 0.00 0.00 0.00 0.00 0.00 0.00 0.00 0.00 0.00 0.00 0.00 0.00 0.00 0.00 0.00 0.00 0.00 0.00 0.00 0.00 0.00 0.00
0.05 0.03 0.02 0.03 0.04 0.06 0.10 0.08 0.07 0.07 0.10 0.11 0.09 0.12 0.09 0.06 0.04 0.02 0.01 0.01 0.00 0.00 0.00 0.00 0.00 0.00 0.00 0.00 0.00 0.00 0.00 0.00 0.00 0.00 0.00 0.00 0.00 0.00 0.00 0.00 0.00 0.00 0.00 0.00
0.06 0.04 0.03 0.05 0.06 0.05 0.08 0.06 0.06 0.07 0.10 0.10 0.07 0.08 0.06 0.03 0.02 0.02 0.01 0.00 0.00 0.00 0.00 0.00 0.00 0.00 0.00 0.00 0.00 0.00 0.00 0.00 0.00 0.00 0.00 0.00 0.00 0.00 0.00 0.00 0.00 0.00 0.00 0.00
0.05 0.04 0.03 0.04 0.05 0.05 0.06 0.07 0.07 0.08 0.11 0.12 0.07 0.07 0.05 0.02 0.01 0.01 0.01 0.00 0.00 0.00 0.00 0.00 0.00 0.00 0.01 0.00 0.00 0.00 0.01 0.00 0.00 0.00 0.00 0.00 0.00 0.00 0.00 0.00 0.00 0.00 0.00 0.00
0.06 0.05 0.03 0.02 0.03 0.04 0.05 0.08 0.11 0.13 0.13 0.10 0.06 0.07 0.03 0.01 0.01 0.02 0.01 0.00 0.00 0.00 0.00 0.00 0.00 0.00 0.01 0.00 0.00 0.00 0.00 0.00 0.00 0.00 0.00 0.00 0.00 0.00 0.00 0.00 0.00 0.00 0.00 0.00
0.06 0.07 0.04 0.01 0.02 0.03 0.03 0.06 0.09 0.09 0.09 0.07 0.05 0.04 0.01 0.01 0.00 0.01 0.01 0.00 0.00 0.00 0.00 0.00 0.00 0.00 0.01 0.01 0.00 0.00 0.00 0.00 0.00 0.00 0.00 0.00 0.00 0.00 0.00 0.00 0.00 0.00 0.00 0.00
0.05 0.07 0.04 0.02 0.01 0.02 0.03 0.04 0.05 0.07 0.06 0.07 0.04 0.01 0.01 0.00 0.00 0.00 0.00 0.00 0.00 0.00 0.01 0.00 0.00 0.01 0.01 0.01 0.00 0.00 0.00 0.00 0.00 0.00 0.00 0.00 0.00 0.00 0.00 0.00 0.00 0.00 0.00 0.00
0.03 0.07 0.06 0.03 0.02 0.02 0.02 0.02 0.04 0.06 0.07 0.07 0.04 0.01 0.00 0.00 0.00 0.00 0.00 0.00 0.00 0.00 0.01 0.00 0.01 0.01 0.01 0.01 0.00 0.00 0.00 0.00 0.00 0.00 0.00 0.00 0.00 0.00 0.00 0.00 0.00 0.00 0.00 0.00
0.02 0.06 0.07 0.05 0.03 0.03 0.03 0.02 0.03 0.04 0.03 0.04 0.05 0.02 0.00 0.00 0.00 0.00 0.00 0.00 0.00 0.00 0.00 0.00 0.00 0.01 0.01 0.01 0.01 0.00 0.00 0.00 0.00 0.00 0.00 0.00 0.00 0.00 0.00 0.00 0.00 0.00 0.00 0.00
0.02 0.05 0.06 0.04 0.03 0.02 0.02 0.01 0.02 0.05 0.03 0.01 0.02 0.02 0.00 0.00 0.00 0.00 0.00 0.00 0.00 0.00 0.00 0.00 0.00 0.01 0.01 0.01 0.00 0.00 0.00 0.00 0.00 0.00 0.00 0.00 0.00 0.00 0.00 0.00 0.00 0.00 0.00 0.00
0.01 0.04 0.06 0.05 0.03 0.02 0.02 0.02 0.01 0.01 0.02 0.02 0.01 0.01 0.01 0.00 0.00 0.00 0.01 0.00 0.00 0.00 0.00 0.00 0.00 0.01 0.01 0.01 0.00 0.00 0.00 0.00 0.00 0.00 0.00 0.00 0.00 0.00 0.00 0.00 0.00 0.00 0.00 0.00
0.00 0.03 0.05 0.06 0.04 0.02 0.02 0.01 0.01 0.01 0.02 0.01 0.01 0.00 0.00 0.00 0.00 0.00 0.01 0.01 0.01 0.00 0.00 0.00 0.00 0.00 0.01 0.01 0.00 0.00 0.00 0.00 0.00 0.00 0.00 0.00 0.00 0.00 0.00 0.00 0.00 0.00 0.00 0.00
0.01 0.03 0.02 0.02 0.02 0.01 0.01 0.01 0.01 0.01 0.01 0.01 0.01 0.00 0.00 0.00 0.00 0.00 0.01 0.01 0.01 0.01 0.00 0.00 0.00 0.00 0.00 0.00 0.00 0.00 0.00 0.00 0.00 0.00 0.00 0.00 0.00 0.00 0.00 0.00 0.00 0.00 0.00 0.00
0.01 0.02 0.02 0.02 0.01 0.01 0.01 0.01 0.01 0.01 0.01 0.01 0.00 0.00 0.00 0.00 0.00 0.00 0.00 0.01 0.01 0.01 0.01 0.00 0.00 0.00 0.00 0.00 0.00 0.00 0.00 0.00 0.00 0.00 0.00 0.00 0.00 0.00 0.00 0.00 0.00 0.00 0.00 0.00
0.01 0.01 0.03 0.03 0.02 0.03 0.02 0.01 0.00 0.00 0.00 0.00 0.00 0.00 0.00 0.00 0.00 0.00 0.00 0.00 0.00 0.00 0.01 0.01 0.00 0.00 0.00 0.00 0.00 0.00 0.00 0.00 0.00 0.00 0.00 0.00 0.00 0.00 0.00 0.00 0.00 0.00 0.00 0.00
0.01 0.01 0.03 0.04 0.03 0.04 0.02 0.01 0.00 0.00 0.01 0.00 0.00 0.00 0.00 0.00 0.00 0.00 0.00 0.00 0.00 0.00 0.00 0.01 0.01 0.00 0.00 0.00 0.00 0.00 0.00 0.00 0.00 0.00 0.00 0.00 0.00 0.00 0.00 0.00 0.00 0.00 0.00 0.00
0.01 0.02 0.03 0.03 0.05 0.02 0.01 0.00 0.00 0.00 0.00 0.00 0.00 0.00 0.00 0.00 0.00 0.00 0.00 0.00 0.00 0.00 0.00 0.00 0.01 0.00 0.00 0.00 0.00 0.00 0.00 0.00 0.00 0.00 0.00 0.00 0.00 0.00 0.00 0.00 0.00 0.00 0.00 0.00
0.00 0.01 0.03 0.03 0.04 0.03 0.01 0.00 0.00 0.00 0.00 0.00 0.00 0.00 0.00 0.00 0.00 0.00 0.00 0.00 0.00 0.00 0.00 0.00 0.00 0.01 0.00 0.00 0.00 0.00 0.00 0.00 0.00 0.00 0.00 0.00 0.00 0.00 0.00 0.00 0.00 0.00 0.00 0.00
0.01 0.02 0.02 0.02 0.03 0.01 0.00 0.00 0.00 0.00 0.00 0.00 0.00 0.00 0.00 0.00 0.00 0.00 0.00 0.00 0.00 0.00 0.00 0.00 0.00 0.00 0.00 0.00 0.00 0.00 0.00 0.00 0.00 0.00 0.00 0.00 0.00 0.00 0.00 0.00 0.00 0.00 0.00 0.00
0.01 0.01 0.01 0.01 0.02 0.01 0.00 0.00 0.00 0.00 0.00 0.00 0.00 0.00 0.00 0.00 0.00 0.00 0.00 0.00 0.00 0.00 0.00 0.00 0.00 0.00 0.00 0.00 0.00 0.00 0.00 0.00 0.00 0.00 0.00 0.00 0.00 0.00 0.00 0.00 0.00 0.00 0.00 0.00
0.00 0.00 0.01 0.01 0.01 0.00 0.00 0.00 0.00 0.00 0.00 0.00 0.00 0.00 0.00 0.00 0.00 0.00 0.00 0.00 0.00 0.00 0.00 0.00 0.00 0.00 0.00 0.00 0.00 0.00 0.00 0.00 0.00 0.00 0.00 0.00 0.00 0.00 0.00 0.00 0.00 0.00 0.00 0.00
0.00 0.00 0.00 0.01 0.00 0.00 0.00 0.00 0.00 0.00 0.00 0.00 0.00 0.00 0.00 0.00 0.00 0.00 0.00 0.00 0.00 0.00 0.00 0.00 0.00 0.00 0.00 0.00 0.00 0.00 0.00 0.00 0.00 0.00 0.00 0.00 0.00 0.00 0.00 0.00 0.00 0.00 0.00 0.00
0.00 0.00 0.00 0.01 0.00 0.00 0.00 0.00 0.00 0.00 0.00 0.00 0.00 0.00 0.00 0.00 0.00 0.00 0.00 0.00 0.00 0.00 0.00 0.00 0.00 0.00 0.00 0.00 0.00 0.00 0.00 0.00 0.00 0.00 0.00 0.00 0.00 0.00 0.00 0.00 0.00 0.00 0.00 0.00
0.00 0.00 0.00 0.00 0.00 0.00 0.00 0.00 0.00 0.00 0.00 0.00 0.00 0.00 0.00 0.00 0.00 0.00 0.00 0.00 0.00 0.00 0.00 0.00 0.00 0.00 0.00 0.00 0.00 0.00 0.00 0.00 0.00 0.00 0.00 0.00 0.00 0.00 0.00 0.00 0.00 0.00 0.00 0.00
MSLP
1013.71 1013.97 1014.06 1014.04 1013.97 1013.94 1014.01 1014.22 1014.57 1015.00 1015.46 1015.87 1016.18 1016.33 1016.33 1016.20 1015.99 1015.76 1015.58 1015.49 1015.51 1015.64 1015.85 1016.11 1016.35 1016.55 1016.69 1016.77 1016.81 1016.83 1016.86 1016.93 1017.05 1017.21 1017.40 1017.59 1017.75 1017.87 1017.92 1017.91 1017.86 1017.80 1017.74 1017.71
1014.01 1014.15 1014.15 1014.08 1014.03 1014.06 1014.24 1014.58 1015.06 1015.60 1016.12 1016.54 1016.79 1016.85 1016.71 1016.43 1016.09 1015.77 1015.55 1015.46 1015.54 1015.75 1016.05 1016.37 1016.66 1016.87 1016.98 1017.01 1016.98 1016.94 1016.93 1016.98 1017.11 1017.31 1017.55 1017.80 1018.01 1018.16 1018.22 1018.21 1018.14 1018.06 1017.98 1017.95
1014.13 1014.19 1014.15 1014.10 1014.11 1014.26 1014.59 1015.09 1015.70 1016.34 1016.90 1017.29 1017.45 1017.36 1017.06 1016.61 1016.12 1015.69 1015.41 1015.33 1015.45 1015.73 1016.11 1016.50 1016.84 1017.06 1017.16 1017.16 1017.08 1017.00 1016.96 1017.02 1017.17 1017.41 1017.71 1018.01 1018.27 1018.45 1018.53 1018.52 1018.44 1018.34 1018.26 1018.22
1014.10 1014.12 1014.09 1014.09 1014.21 1014.51 1015.01 1015.68 1016.42 1017.14 1017.71 1018.04 1018.07 1017.81 1017.31 1016.66 1016.01 1015.46 1015.12 1015.02 1015.17 1015.52 1015.97 1016.44 1016.83 1017.09 1017.21 1017.19 1017.11 1017.01 1016.98 1017.05 1017.23 1017.52 1017.87 1018.23 1018.53 1018.74 1018.84 1018.84 1018.76 1018.65 1018.56 1018.53
1013.97 1013.97 1013.98 1014.07 1014.33 1014.79 1015.45 1016.26 1017.10 1017.86 1018.41 1018.64 1018.53 1018.08 1017.37 1016.53 1015.71 1015.04 1014.62 1014.51 1014.68 1015.08 1015.61 1016.15 1016.61 1016.93 1017.09 1017.11 1017.04 1016.97 1016.97 1017.07 1017.30 1017.64 1018.04 1018.44 1018.78 1019.02 1019.15 1019.16 1019.09 1018.99 1018.90 1018.87
1013.78 1013.80 1013.86 1014.05 1014.43 1015.03 1015.82 1016.73 1017.63 1018.39 1018.87 1018.99 1018.71 1018.08 1017.18 1016.15 1015.18 1014.40 1013.92 1013.78 1013.98 1014.42 1015.02 1015.65 1016.19 1016.59 1016.81 1016.90 1016.90 1016.88 1016.93 1017.08 1017.36 1017.75 1018.19 1018.62 1019.00 1019.27 1019.42 1019.45 1019.40 1019.32 1019.25 1019.23
1013.61 1013.65 1013.76 1014.03 1014.51 1015.21 1016.07 1017.02 1017.92 1018.62 1019.01 1018.99 1018.55 1017.75 1016.68 1015.52 1014.43 1013.57 1013.04 1012.90 1013.11 1013.61 1014.27 1014.98 1015.61 1016.10 1016.42 1016.60 1016.68 1016.75 1016.86 1017.08 1017.40 1017.83 1018.30 1018.77 1019.17 1019.47 1019.64 1019.70 1019.68 1019.63 1019.59 1019.59
1013.49 1013.55 1013.72 1014.05 1014.58 1015.31 1016.18 1017.10 1017.92 1018.52 1018.77 1018.61 1018.03 1017.08 1015.90 1014.65 1013.50 1012.60 1012.07 1011.94 1012.18 1012.73 1013.46 1014.24 1014.96 1015.54 1015.97 1016.25 1016.43 1016.58 1016.77 1017.05 1017.42 1017.88 1018.37 1018.86 1019.27 1019.59 1019.79 1019.89 1019.92 1019.91 1019.91 1019.95
1013.43 1013.53 1013.74 1014.10 1014.64 1015.34 1016.15 1016.96 1017.65 1018.09 1018.19 1017.88 1017.17 1016.14 1014.90 1013.62 1012.47 1011.60 1011.11 1011.02 1011.31 1011.91 1012.70 1013.54 1014.34 1015.01 1015.53 1015.90 1016.18 1016.42 1016.69 1017.02 1017.43 1017.90 1018.41 1018.90 1019.33 1019.67 1019.89 1020.03 1020.10 1020.15 1020.20 1020.28
1013.43 1013.60 1013.85 1014.22 1014.73 1015.35 1016.02 1016.66 1017.16 1017.41 1017.33 1016.88 1016.08 1015.00 1013.77 1012.53 1011.45 1010.67 1010.25 1010.24 1010.60 1011.25 1012.09 1012.99 1013.84 1014.58 1015.17 1015.63 1015.99 1016.30 1016.62 1017.00 1017.43 1017.92 1018.43 1018.92 1019.36 1019.71 1019.96 1020.14 1020.26 1020.37 1020.47 1020.60
1013.47 1013.72 1014.03 1014.40 1014.85 1015.34 1015.84 1016.27 1016.54 1016.57 1016.30 1015.72 1014.86 1013.78 1012.61 1011.48 1010.53 1009.88 1009.59 1009.68 1010.11 1010.82 1011.69 1012.62 1013.50 1014.28 1014.92 1015.44 1015.86 1016.23 1016.60 1017.00 1017.46 1017.95 1018.45 1018.94 1019.38 1019.74 1020.03 1020.25 1020.42 1020.57 1020.73 1020.91
1013.50 1013.87 1014.24 1014.62 1014.99 1015.35 1015.65 1015.84 1015.86 1015.66 1015.21 1014.52 1013.61 1012.58 1011.51 1010.53 1009.75 1009.27 1009.13 1009.33 1009.85 1010.60 1011.49 1012.42 1013.31 1014.10 1014.77 1015.32 1015.78 1016.19 1016.60 1017.03 1017.49 1017.99 1018.49 1018.98 1019.42 1019.80 1020.11 1020.37 1020.58 1020.78 1020.99 1021.21
1013.49 1013.99 1014.44 1014.83 1015.14 1015.35 1015.45 1015.40 1015.18 1014.76 1014.14 1013.35 1012.43 1011.46 1010.51 1009.71 1009.12 1008.82 1008.83 1009.15 1009.73 1010.51 1011.41 1012.32 1013.19 1013.97 1014.64 1015.21 1015.69 1016.14 1016.57 1017.03 1017.51 1018.01 1018.52 1019.01 1019.47 1019.86 1020.20 1020.49 1020.75 1020.99 1021.23 1021.48
1013.40 1014.03 1014.57 1014.97 1015.22 1015.30 1015.22 1014.95 1014.50 1013.89 1013.13 1012.26 1011.34 1010.45 1009.64 1009.00 1008.60 1008.47 1008.62 1009.03 1009.66 1010.45 1011.32 1012.20 1013.04 1013.79 1014.45 1015.02 1015.53 1016.00 1016.47 1016.96 1017.47 1017.99 1018.52 1019.02 1019.49 1019.91 1020.28 1020.60 1020.90 1021.17 1021.44 1021.71
1013.21 1013.96 1014.56 1014.97 1015.17 1015.14 1014.89 1014.44 1013.81 1013.04 1012.17 1011.26 1010.36 1009.54 1008.86 1008.39 1008.14 1008.15 1008.40 1008.87 1009.52 1010.29 1011.12 1011.94 1012.73 1013.44 1014.09 1014.67 1015.20 1015.72 1016.23 1016.77 1017.31 1017.87 1018.43 1018.96 1019.46 1019.91 1020.31 1020.66 1020.99 1021.29 1021.59 1021.88
1012.92 1013.74 1014.37 1014.77 1014.91 1014.79 1014.42 1013.84 1013.07 1012.20 1011.26 1010.34 1009.48 1008.74 1008.17 1007.82 1007.69 1007.79 1008.11 1008.60 1009.23 1009.95 1010.71 1011.47 1012.19 1012.87 1013.50 1014.10 1014.67 1015.24 1015.81 1016.41 1017.01 1017.62 1018.22 1018.79 1019.32 1019.80 1020.24 1020.63 1020.99 1021.32 1021.64 1021.95
1012.52 1013.34 1013.95 1014.32 1014.40 1014.21 1013.76 1013.08 1012.25 1011.33 1010.38 1009.48 1008.67 1008.02 1007.55 1007.29 1007.24 1007.39 1007.71 1008.19 1008.76 1009.40 1010.08 1010.76 1011.42 1012.07 1012.70 1013.31 1013.93 1014.57 1015.21 1015.88 1016.55 1017.22 1017.87 1018.48 1019.05 1019.57 1020.05 1020.47 1020.87 1021.23 1021.58 1021.91
1012.00 1012.75 1013.30 1013.59 1013.61 1013.36 1012.86 1012.16 1011.32 1010.41 1009.51 1008.67 1007.94 1007.38 1006.99 1006.80 1006.79 1006.95 1007.25 1007.66 1008.15 1008.70 1009.28 1009.87 1010.48 1011.10 1011.73 1012.38 1013.05 1013.75 1014.48 1015.22 1015.96 1016.69 1017.39 1018.05 1018.66 1019.22 1019.72 1020.19 1020.61 1021.01 1021.39 1021.74
1011.36 1011.97 1012.40 1012.60 1012.55 1012.26 1011.75 1011.08 1010.29 1009.46 1008.65 1007.92 1007.30 1006.83 1006.52 1006.38 1006.38 1006.52 1006.76 1007.10 1007.49 1007.93 1008.42 1008.94 1009.49 1010.09 1010.72 1011.41 1012.13 1012.90 1013.69 1014.50 1015.30 1016.07 1016.82 1017.51 1018.16 1018.74 1019.28 1019.78 1020.24 1020.67 1021.08 1021.46
1010.60 1011.03 1011.30 1011.39 1011.27 1010.96 1010.48 1009.87 1009.19 1008.49 1007.82 1007.23 1006.75 1006.39 1006.16 1006.06 1006.07 1006.17 1006.35 1006.60 1006.89 1007.24 1007.63 1008.09 1008.59 1009.17 1009.81 1010.52 1011.29 1012.11 1012.95 1013.80 1014.64 1015.45 1016.21 1016.93 1017.59 1018.20 1018.76 1019.28 1019.76 1020.23 1020.66 1021.07
1009.72 1009.95 1010.06 1010.02 1009.85 1009.53 1009.11 1008.61 1008.07 1007.54 1007.04 1006.62 1006.29 1006.05 1005.91 1005.85 1005.87 1005.94 1006.07 1006.24 1006.45 1006.71 1007.04 1007.43 1007.90 1008.46 1009.10 1009.83 1010.61 1011.45 1012.32 1013.18 1014.03 1014.85 1015.62 1016.33 1016.99 1017.60 1018.17 1018.70 1019.21 1019.69 1020.15 1020.58
1008.75 1008.78 1008.73 1008.59 1008.37 1008.07 1007.73 1007.36 1006.98 1006.64 1006.33 1006.09 1005.92 1005.80 1005.75 1005.75 1005.78 1005.84 1005.93 1006.05 1006.20 1006.41 1006.68 1007.03 1007.48 1008.01 1008.64 1009.36 1010.14 1010.97 1011.82 1012.67 1013.50 1014.29 1015.04 1015.74 1016.38 1016.98 1017.55 1018.08 1018.59 1019.08 1019.55 1020.00
1007.73 1007.58 1007.40 1007.18 1006.93 1006.68 1006.42 1006.19 1005.98 1005.82 1005.70 1005.63 1005.61 1005.62 1005.66 1005.71 1005.77 1005.84 1005.91 1006.01 1006.14 1006.31 1006.55 1006.88 1007.30 1007.81 1008.41 1009.09 1009.84 1010.62 1011.43 1012.23 1013.02 1013.77 1014.47 1015.13 1015.75 1016.33 1016.88 1017.41 1017.91 1018.40 1018.87 1019.32
1006.71 1006.43 1006.14 1005.87 1005.63 1005.42 1005.26 1005.16 1005.11 1005.11 1005.15 1005.24 1005.34 1005.46 1005.57 1005.68 1005.78 1005.87 1005.96 1006.06 1006.18 1006.36 1006.59 1006.90 1007.29 1007.76 1008.32 1008.95 1009.63 1010.34 1011.08 1011.81 1012.53 1013.22 1013.87 1014.49 1015.08 1015.64 1016.17 1016.69 1017.18 1017.66 1018.12 1018.56
1005.76 1005.39 1005.04 1004.75 1004.52 1004.37 1004.31 1004.32 1004.39 1004.52 1004.69 1004.89 1005.09 1005.29 1005.47 1005.62 1005.76 1005.88 1006.00 1006.12 1006.27 1006.45 1006.68 1006.98 1007.34 1007.77 1008.27 1008.82 1009.41 1010.04 1010.68 1011.32 1011.96 1012.59 1013.20 1013.78 1014.35 1014.89 1015.41 1015.91 1016.39 1016.85 1017.29 1017.72
1004.92 1004.50 1004.13 1003.85 1003.66 1003.58 1003.59 1003.69 1003.86 1004.08 1004.33 1004.59 1004.85 1005.09 1005.31 1005.50 1005.67 1005.83 1005.98 1006.13 1006.30 1006.50 1006.74 1007.02 1007.35 1007.72 1008.14 1008.60 1009.09 1009.62 1010.16 1010.71 1011.28 1011.85 1012.42 1012.98 1013.53 1014.07 1014.59 1015.08 1015.56 1016.00 1016.42 1016.82
Thickness
5722 5715 5712 5721 5731 5735 5732 5726 5724 5728 5741 5735 5728 5730 5739 5749 5750 5750 5753 5756 5757 5759 5764 5767 5767 5766 5765 5763 5760 5757 5756 5754 5752 5749 5746 5742 5740 5740 5738 5736 5734 5733 5732 5731
5710 5707 5723 5733 5735 5735 5733 5724 5720 5724 5736 5733 5725 5727 5740 5747 5750 5754 5755 5756 5758 5759 5761 5761 5762 5762 5762 5760 5759 5757 5755 5753 5750 5748 5746 5744 5742 5740 5737 5736 5734 5733 5731 5730
5704 5714 5729 5729 5727 5726 5726 5721 5718 5718 5726 5731 5724 5719 5731 5743 5752 5755 5758 5761 5763 5760 5758 5758 5759 5759 5759 5757 5757 5756 5754 5752 5750 5748 5746 5743 5741 5739 5735 5733 5732 5732 5730 5729
5707 5719 5723 5720 5721 5723 5714 5726 5724 5720 5715 5712 5719 5702 5722 5736 5742 5749 5754 5759 5761 5762 5761 5758 5757 5756 5756 5757 5758 5756 5754 5752 5749 5747 5744 5740 5736 5732 5733 5733 5732 5731 5730 5728
5705 5715 5716 5713 5719 5724 5718 5727 5723 5719 5713 5711 5719 5711 5720 5738 5736 5744 5753 5759 5762 5762 5761 5758 5757 5756 5757 5756 5755 5754 5752 5750 5748 5746 5743 5740 5737 5735 5735 5734 5732 5731 5729 5728
5713 5723 5723 5719 5724 5726 5723 5720 5716 5715 5708 5696 5714 5712 5715 5737 5744 5748 5754 5760 5762 5762 5761 5759 5758 5756 5755 5754 5753 5751 5748 5746 5746 5744 5742 5739 5736 5735 5732 5731 5730 5729 5728 5727
5702 5712 5720 5724 5713 5716 5716 5703 5688 5683 5684 5694 5721 5716 5725 5752 5762 5760 5758 5761 5763 5762 5760 5757 5755 5752 5750 5750 5749 5748 5746 5743 5744 5743 5742 5740 5738 5736 5733 5731 5730 5728 5726 5725
5691 5692 5712 5719 5715 5708 5709 5705 5687 5678 5683 5700 5719 5718 5740 5765 5771 5770 5767 5765 5764 5761 5761 5758 5755 5752 5750 5749 5748 5746 5744 5742 5742 5742 5741 5740 5738 5736 5734 5733 5731 5729 5727 5726
5696 5696 5717 5722 5724 5719 5706 5705 5710 5698 5698 5697 5712 5729 5745 5763 5765 5766 5767 5765 5762 5761 5760 5758 5756 5754 5751 5749 5747 5746 5744 5742 5741 5741 5741 5739 5737 5735 5734 5733 5732 5730 5729 5727
5710 5696 5708 5717 5719 5720 5719 5714 5707 5698 5690 5688 5708 5722 5729 5744 5752 5761 5763 5762 5761 5761 5760 5757 5756 5754 5752 5750 5748 5747 5746 5743 5741 5741 5740 5738 5736 5735 5733 5732 5730 5729 5728 5726
5717 5699 5700 5707 5703 5705 5711 5711 5712 5711 5711 5697 5696 5718 5757 5756 5758 5759 5763 5765 5763 5762 5760 5758 5756 5755 5753 5751 5749 5747 5745 5743 5741 5740 5739 5736 5735 5734 5732 5730 5728 5727 5726 5725
5718 5706 5695 5705 5720 5726 5721 5719 5716 5701 5704 5714 5707 5720 5768 5768 5769 5767 5766 5768 5767 5765 5762 5759 5756 5754 5752 5749 5748 5746 5745 5742 5740 5739 5737 5735 5733 5732 5730 5728 5727 5726 5724 5723
5720 5706 5690 5693 5703 5715 5716 5723 5725 5721 5714 5709 5705 5721 5767 5769 5769 5770 5768 5768 5767 5764 5762 5758 5754 5752 5750 5748 5747 5746 5744 5742 5740 5738 5735 5733 5731 5729 5727 5726 5725 5724 5722 5720
5726 5710 5699 5689 5699 5711 5713 5721 5727 5722 5709 5711 5720 5732 5752 5758 5762 5766 5767 5768 5766 5763 5760 5756 5752 5751 5749 5748 5747 5745 5742 5741 5738 5736 5733 5730 5729 5727 5726 5724 5722 5721 5719 5717
5725 5708 5712 5716 5720 5722 5721 5724 5728 5725 5725 5720 5727 5736 5749 5759 5763 5766 5767 5766 5763 5760 5758 5756 5752 5751 5749 5747 5746 5744 5741 5739 5737 5733 5731 5729 5728 5726 5723 5721 5719 5717 5715 5713
5723 5713 5713 5712 5722 5724 5722 5728 5731 5732 5734 5734 5737 5742 5763 5768 5769 5766 5766 5764 5759 5758 5758 5757 5754 5752 5749 5748 5746 5743 5740 5738 5736 5732 5729 5727 5725 5722 5719 5716 5714 5712 5710 5708
5721 5716 5707 5703 5718 5718 5710 5728 5732 5735 5741 5740 5734 5748 5763 5762 5763 5764 5765 5764 5761 5760 5758 5757 5756 5754 5752 5751 5749 5743 5741 5738 5735 5731 5727 5724 5721 5718 5715 5713 5710 5707 5704 5702
5723 5717 5710 5703 5704 5690 5722 5749 5747 5741 5745 5751 5753 5760 5763 5764 5767 5770 5771 5767 5764 5763 5760 5759 5758 5756 5755 5753 5750 5745 5740 5737 5733 5728 5725 5721 5717 5713 5711 5708 5704 5702 5700 5696
5735 5720 5708 5700 5694 5705 5729 5745 5745 5738 5738 5756 5756 5760 5765 5769 5765 5764 5772 5772 5768 5766 5764 5763 5761 5759 5755 5753 5749 5743 5737 5734 5729 5725 5722 5718 5714 5710 5706 5702 5699 5698 5695 5692
5733 5728 5710 5702 5691 5690 5720 5746 5758 5745 5728 5755 5759 5759 5762 5762 5743 5749 5768 5770 5768 5766 5764 5762 5760 5757 5753 5751 5747 5740 5734 5730 5726 5723 5720 5716 5712 5706 5702 5698 5696 5693 5690 5687
5713 5711 5704 5700 5696 5707 5735 5748 5750 5719 5722 5752 5758 5759 5760 5755 5753 5760 5767 5766 5764 5763 5761 5759 5756 5752 5750 5749 5743 5736 5731 5728 5725 5721 5717 5712 5707 5702 5698 5694 5691 5688 5684 5681
5713 5706 5705 5705 5696 5702 5739 5740 5732 5732 5748 5752 5753 5755 5755 5755 5758 5759 5758 5757 5757 5755 5755 5753 5749 5747 5746 5745 5739 5732 5728 5726 5722 5716 5711 5706 5702 5698 5694 5689 5685 5682 5679 5675
5725 5723 5719 5717 5715 5731 5740 5740 5744 5747 5744 5746 5748 5750 5751 5749 5749 5750 5750 5750 5750 5749 5747 5746 5743 5741 5740 5739 5735 5728 5724 5722 5716 5710 5705 5701 5697 5693 5689 5684 5680 5676 5673 5669
5729 5737 5727 5722 5726 5732 5736 5740 5743 5744 5743 5744 5745 5745 5745 5743 5744 5744 5744 5743 5741 5741 5740 5739 5736 5732 5731 5731 5728 5724 5721 5717 5711 5704 5699 5695 5691 5687 5684 5679 5675 5671 5667 5663
5718 5722 5718 5716 5722 5725 5728 5732 5734 5737 5739 5740 5740 5741 5740 5739 5739 5739 5738 5737 5735 5734 5733 5732 5729 5727 5725 5724 5721 5719 5715 5711 5704 5699 5694 5690 5686 5682 5678 5674 5670 5667 5664 5661
5715 5712 5707 5704 5715 5715 5716 5726 5729 5728 5729 5731 5731 5732 5735 5735 5733 5733 5732 5732 5730 5728 5727 5724 5723 5720 5719 5717 5714 5712 5710 5705 5699 5694 5689 5685 5681 5676 5672 5667 5663 5660 5657 5654